Satellite-Ground Cal/Val Region Overpasses Predictions

Prediction of Satellite NPP Overpassing Cal/Val Region: PacNW

Region Location: (Latitude: 10.00, Longitude: 139.50) to (Latitude: 22.70, Longitude: 165.60).

Table of predicted overpasses for the next 14.0 days since TLE Epoch: 8/6/2016
Interval Starting Time Starting Location Ending Time Ending Location
1 08/06/2016 14:30:36 ( 11.58, 165.59) 08/06/2016 14:31:02 ( 10.05, 165.24)
2 08/06/2016 16:08:57 ( 22.66, 142.87) 08/06/2016 16:12:32 ( 10.04, 139.87)
3 08/07/2016 03:18:02 ( 10.04, 150.40) 08/07/2016 03:21:37 ( 22.66, 147.40)
4 08/07/2016 15:49:55 ( 22.67, 147.63) 08/07/2016 15:53:30 ( 10.05, 144.63)
5 08/08/2016 02:59:00 ( 10.03, 155.16) 08/08/2016 03:02:35 ( 22.66, 152.16)
6 08/08/2016 15:30:52 ( 22.67, 152.39) 08/08/2016 15:34:27 ( 10.06, 149.39)
7 08/09/2016 02:39:57 ( 10.03, 159.92) 08/09/2016 02:43:32 ( 22.65, 156.92)
8 08/09/2016 15:11:50 ( 22.68, 157.15) 08/09/2016 15:15:26 ( 10.00, 154.14)
9 08/10/2016 02:20:55 ( 10.02, 164.68) 08/10/2016 02:24:30 ( 22.65, 161.68)
10 08/10/2016 14:52:47 ( 22.68, 161.91) 08/10/2016 14:56:23 ( 10.01, 158.90)
11 08/11/2016 03:43:22 ( 10.03, 144.06) 08/11/2016 03:46:57 ( 22.65, 141.06)
12 08/11/2016 14:35:00 ( 18.29, 165.59) 08/11/2016 14:37:21 ( 10.01, 163.66)
13 08/11/2016 16:15:15 ( 22.68, 141.29) 08/11/2016 16:17:21 ( 15.29, 139.50)
14 08/12/2016 03:24:20 ( 10.03, 148.82) 08/12/2016 03:27:55 ( 22.65, 145.82)
15 08/12/2016 15:56:12 ( 22.68, 146.05) 08/12/2016 15:59:48 ( 10.00, 143.04)
16 08/13/2016 03:05:17 ( 10.03, 153.58) 08/13/2016 03:08:52 ( 22.65, 150.58)
17 08/13/2016 15:37:10 ( 22.68, 150.81) 08/13/2016 15:40:46 ( 10.01, 147.80)
18 08/14/2016 02:46:15 ( 10.02, 158.34) 08/14/2016 02:49:50 ( 22.65, 155.34)
19 08/14/2016 15:18:07 ( 22.69, 155.57) 08/14/2016 15:21:43 ( 10.01, 152.56)
20 08/15/2016 02:27:12 ( 10.02, 163.10) 08/15/2016 02:30:47 ( 22.65, 160.10)
21 08/15/2016 14:59:05 ( 22.69, 160.33) 08/15/2016 15:02:41 ( 10.01, 157.32)
22 08/16/2016 02:10:54 ( 19.66, 165.60) 08/16/2016 02:11:45 ( 22.65, 164.86)
23
